Location: Atlantic Beach
(40.5890°N, 73.7290°W)
Time: 07:05:02
(UTC+00:00)

N. Korean satellite - Pass Details

Date: 22 January 2021
Orbit: 451 x 502 km, 97.2° (Epoch: 04 March)

Event Time Altitude Azimuth Distance (km) Brightness Sun altitude
Rises 09:13:41 0° 37° (NE) 2,507 10.7 -33.8°
Reaches altitude 10° 09:17:34 10° 82° (E) 1,608 10.0 -33.1°
Maximum altitude 09:18:06 10° 91° (E) 1,589 10.0 -33.0°
Drops below altitude 10° 09:18:38 10° 100° (E) 1,603 10.0 -32.9°
Sets 09:22:26 0° 144° (SE) 2,457 10.6 -32.1°
